�������l�o���
Date,Time,MP-1(��Sv/h),MP-2(��Sv/h),MP-3(��Sv/h),MP-4(��Sv/h),MP-5(��Sv/h),MP-6(��Sv/h),MP-7(��Sv/h),MP-8(��Sv/h),����,����(m/s),���J
2017/06/10,00:00,1.024,1.633,1.090,1.932,1.338,0.542,0.986,0.911,��쐼,1.2,��
2017/06/10,00:10,1.024,1.633,1.090,1.929,1.335,0.544,0.985,0.909,�쐼,2.6,��
2017/06/10,00:20,1.021,1.630,1.089,1.931,1.338,0.544,0.986,0.910,���쐼,2.6,��
2017/06/10,00:30,1.022,1.631,1.087,1.928,1.337,0.543,0.986,0.908,���쐼,2.6,��
2017/06/10,00:40,1.021,1.631,1.089,1.930,1.336,0.541,0.986,0.910,��,1.7,��
2017/06/10,00:50,1.023,1.629,1.088,1.932,1.337,0.543,0.985,0.912,�k�k��,1.4,��
2017/06/10,01:00,1.022,1.630,1.088,1.930,1.335,0.542,0.986,0.909,�k�k��,0.9,��
2017/06/10,01:10,1.023,1.631,1.088,1.929,1.336,0.542,0.986,0.910,�k�k��,1.4,��
2017/06/10,01:20,1.022,1.630,1.088,1.930,1.338,0.543,0.986,0.909,�k�k��,2.3,��
2017/06/10,01:30,1.022,1.628,1.086,1.931,1.336,0.543,0.987,0.909,�k�k��,2.9,��
2017/06/10,01:40,1.023,1.629,1.089,1.931,1.336,0.543,0.987,0.910,�k�k��,2.9,��
2017/06/10,01:50,1.019,1.630,1.088,1.930,1.337,0.543,0.987,0.910,�k�k��,2.3,��
2017/06/10,02:00,1.019,1.632,1.086,1.930,1.336,0.542,0.985,0.911,�k�k��,1.2,��
2017/06/10,02:10,1.020,1.629,1.086,1.930,1.336,0.540,0.988,0.908,�k�k��,1.9,��
2017/06/10,02:20,1.020,1.630,1.087,1.930,1.339,0.541,0.986,0.908,�k�k��,1.4,��
2017/06/10,02:30,1.021,1.629,1.087,1.928,1.333,0.541,0.986,0.909,�k,1.4,��
2017/06/10,02:40,1.020,1.628,1.086,1.930,1.333,0.541,0.984,0.910,�k,2.8,��
2017/06/10,02:50,1.020,1.627,1.085,1.929,1.336,0.541,0.987,0.910,�k,3.8,��
2017/06/10,03:00,1.019,1.630,1.086,1.928,1.335,0.540,0.987,0.909,�k,3.4,��
2017/06/10,03:10,1.019,1.628,1.085,1.932,1.337,0.541,0.987,0.912,�k,2.5,��
2017/06/10,03:20,1.018,1.628,1.087,1.931,1.335,0.540,0.986,0.909,�k,3.0,��
2017/06/10,03:30,1.018,1.629,1.088,1.930,1.336,0.541,0.988,0.909,�k,3.2,��
2017/06/10,03:40,1.020,1.629,1.088,1.929,1.333,0.540,0.986,0.908,�k�k��,3.0,��
2017/06/10,03:50,1.020,1.628,1.086,1.930,1.333,0.540,0.984,0.908,�k�k��,2.3,��
2017/06/10,04:00,1.020,1.630,1.087,1.931,1.337,0.540,0.986,0.908,�k,3.1,��
2017/06/10,04:10,1.019,1.627,1.084,1.927,1.334,0.540,0.984,0.909,�k,3.5,��
2017/06/10,04:20,1.018,1.628,1.087,1.930,1.334,0.539,0.986,0.908,�k,3.0,��
2017/06/10,04:30,1.020,1.630,1.084,1.930,1.335,0.541,0.985,0.909,�k�k��,2.3,��
2017/06/10,04:40,1.020,1.629,1.087,1.931,1.335,0.540,0.985,0.907,�k�k��,2.6,��
2017/06/10,04:50,1.019,1.629,1.087,1.930,1.335,0.539,0.986,0.910,�k�k��,1.2,��
2017/06/10,05:00,1.020,1.627,1.088,1.927,1.335,0.542,0.985,0.909,�k,2.0,��
2017/06/10,05:10,1.019,1.628,1.086,1.928,1.338,0.541,0.987,0.909,�k��,2.2,��
2017/06/10,05:20,1.021,1.629,1.085,1.932,1.333,0.540,0.986,0.910,�k��,1.7,��
2017/06/10,05:30,1.020,1.630,1.084,1.929,1.333,0.540,0.986,0.909,�k��,1.9,��
2017/06/10,05:40,1.022,1.630,1.088,1.930,1.332,0.540,0.985,0.910,��,1.5,��
2017/06/10,05:50,1.021,1.629,1.088,1.927,1.331,0.541,0.986,0.908,���k��,0.9,��
2017/06/10,06:00,1.019,1.631,1.087,1.928,1.337,0.542,0.985,0.908,��,1.9,��
2017/06/10,06:10,1.020,1.632,1.087,1.929,1.334,0.541,0.987,0.908,���k��,0.6,��
2017/06/10,06:20,1.021,1.628,1.087,1.931,1.333,0.540,0.986,0.908,-,CALM,��
2017/06/10,06:30,1.023,1.631,1.088,1.931,1.335,0.540,0.988,0.911,-,CALM,��
2017/06/10,06:40,1.024,1.630,1.089,1.929,1.333,0.541,0.988,0.910,-,CALM,��
2017/06/10,06:50,1.023,1.629,1.088,1.933,1.335,0.540,0.987,0.910,��,1.2,��
2017/06/10,07:00,1.020,1.630,1.089,1.932,1.333,0.542,0.987,0.911,�쐼,1.4,��
2017/06/10,07:10,1.021,1.627,1.092,1.931,1.334,0.539,0.989,0.912,��쐼,2.3,��
2017/06/10,07:20,1.021,1.629,1.090,1.934,1.335,0.541,0.987,0.912,��,2.6,��
2017/06/10,07:30,1.022,1.628,1.091,1.936,1.334,0.540,0.986,0.912,��쓌,2.0,��
2017/06/10,07:40,1.023,1.633,1.095,1.933,1.337,0.540,0.986,0.909,��쓌,1.1,��
2017/06/10,07:50,1.021,1.626,1.091,1.933,1.338,0.539,0.986,0.910,�쓌,2.0,��
2017/06/10,08:00,1.024,1.627,1.089,1.936,1.337,0.538,0.985,0.908,�쓌,2.3,��
2017/06/10,08:10,1.023,1.630,1.087,1.934,1.337,0.539,0.984,0.908,��쓌,2.5,��
2017/06/10,08:20,1.021,1.632,1.089,1.933,1.337,0.538,0.985,0.908,��,2.6,��
2017/06/10,08:30,1.024,1.631,1.089,1.934,1.335,0.541,0.987,0.908,�쐼,1.4,��
2017/06/10,08:40,1.024,1.635,1.090,1.935,1.336,0.540,0.987,0.909,���쐼,1.4,��
2017/06/10,08:50,1.023,1.633,1.091,1.937,1.340,0.541,0.987,0.908,��,2.9,��
2017/06/10,09:00,1.026,1.635,1.093,1.936,1.336,0.541,0.987,0.908,���k��,4.1,��
2017/06/10,09:10,1.026,1.633,1.091,1.938,1.339,0.540,0.987,0.907,��,4.3,��
2017/06/10,09:20,1.026,1.632,1.090,1.935,1.341,0.542,0.988,0.910,��,4.9,��
2017/06/10,09:30,1.027,1.632,1.091,1.936,1.339,0.541,0.988,0.909,���k��,5.1,��
2017/06/10,09:40,1.027,1.637,1.092,1.936,1.337,0.544,0.988,0.910,��,6.0,��
2017/06/10,09:50,1.025,1.634,1.092,1.938,1.339,0.541,0.987,0.909,��,3.2,��
2017/06/10,10:00,1.025,1.636,1.092,1.937,1.340,0.543,0.989,0.908,��,2.0,��
2017/06/10,10:10,1.023,1.636,1.091,1.938,1.338,0.543,0.986,0.909,��쓌,2.6,��
2017/06/10,10:20,1.026,1.637,1.091,1.940,1.339,0.542,0.989,0.909,��쓌,4.7,��
2017/06/10,10:30,1.024,1.638,1.092,1.936,1.341,0.542,0.988,0.907,��쓌,6.3,��
2017/06/10,10:40,1.026,1.641,1.091,1.938,1.341,0.544,0.987,0.911,��쓌,7.4,��
2017/06/10,10:50,1.026,1.640,1.094,1.940,1.339,0.542,0.989,0.907,��쓌,7.5,��
2017/06/10,11:00,1.024,1.639,1.094,1.939,1.345,0.545,0.988,0.909,��쓌,8.1,��
2017/06/10,11:10,1.025,1.639,1.093,1.939,1.344,0.543,0.989,0.910,��쓌,7.8,��
2017/06/10,11:20,1.023,1.639,1.093,1.937,1.341,0.543,0.989,0.909,��쓌,7.4,��
2017/06/10,11:30,1.027,1.639,1.094,1.934,1.343,0.543,0.989,0.908,��쓌,9.2,��
2017/06/10,11:40,1.026,1.642,1.092,1.938,1.345,0.542,0.988,0.909,��쓌,8.8,��
2017/06/10,11:50,1.029,1.639,1.095,1.939,1.343,0.544,0.990,0.910,��쓌,9.6,��
2017/06/10,12:00,1.028,1.643,1.093,1.939,1.345,0.542,0.990,0.911,��쓌,11.1,��
2017/06/10,12:10,1.030,1.642,1.093,1.940,1.345,0.544,0.988,0.911,��,11.1,��
2017/06/10,12:20,1.029,1.642,1.095,1.938,1.345,0.544,0.989,0.911,��쓌,12.4,��
2017/06/10,12:30,1.027,1.646,1.095,1.939,1.347,0.544,0.988,0.911,��쓌,13.6,��
2017/06/10,12:40,1.030,1.646,1.095,1.942,1.349,0.544,0.988,0.909,��,11.0,��
2017/06/10,12:50,1.028,1.646,1.097,1.939,1.347,0.543,0.991,0.911,��쓌,11.7,�L
2017/06/10,13:00,1.029,1.645,1.095,1.942,1.349,0.546,0.990,0.910,��쓌,12.7,�L
2017/06/10,13:10,1.031,1.645,1.097,1.941,1.350,0.545,0.991,0.910,��,12.0,�L
2017/06/10,13:20,1.032,1.647,1.097,1.943,1.349,0.545,0.990,0.909,��,11.3,��
2017/06/10,13:30,1.029,1.643,1.095,1.940,1.348,0.545,0.990,0.911,��,9.1,�L
2017/06/10,13:40,1.028,1.641,1.093,1.939,1.348,0.544,0.990,0.911,��,2.6,�L
2017/06/10,13:50,0.994,1.556,1.050,1.867,1.295,0.541,0.980,0.908,�k�k��,7.5,�L
2017/06/10,14:00,0.988,1.558,1.053,1.860,1.285,0.539,0.973,0.897,���쐼,2.6,�L
2017/06/10,14:10,0.991,1.564,1.055,1.865,1.293,0.541,0.973,0.897,�쐼,2.6,��
2017/06/10,14:20,0.992,1.571,1.056,1.870,1.293,0.541,0.974,0.900,��,3.0,��
2017/06/10,14:30,0.992,1.568,1.054,1.869,1.293,0.540,0.974,0.900,��,2.6,��
2017/06/10,14:40,0.991,1.572,1.054,1.871,1.293,0.540,0.975,0.900,��,2.5,��
2017/06/10,14:50,0.993,1.568,1.053,1.868,1.292,0.537,0.974,0.899,��쐼,2.8,��
2017/06/10,15:00,0.991,1.568,1.051,1.869,1.290,0.540,0.974,0.899,���쐼,3.3,�L
2017/06/10,15:10,0.990,1.566,1.054,1.868,1.290,0.537,0.973,0.900,��,4.1,�L
2017/06/10,15:20,0.992,1.570,1.051,1.866,1.290,0.539,0.973,0.899,��,5.3,�L
2017/06/10,15:30,0.990,1.567,1.053,1.869,1.291,0.536,0.975,0.899,���k��,6.8,�L
2017/06/10,15:40,0.990,1.566,1.051,1.869,1.290,0.537,0.973,0.897,���k��,6.3,��
2017/06/10,15:50,0.988,1.570,1.051,1.867,1.289,0.535,0.973,0.898,���k��,5.0,��
2017/06/10,16:00,0.988,1.569,1.050,1.869,1.288,0.536,0.975,0.899,���k��,5.8,��
2017/06/10,16:10,0.990,1.569,1.052,1.871,1.287,0.535,0.976,0.899,�k�k��,3.2,��
2017/06/10,16:20,0.983,1.571,1.052,1.870,1.287,0.536,0.973,0.900,�k,5.8,��
2017/06/10,16:30,0.988,1.569,1.052,1.874,1.289,0.535,0.975,0.901,�k,5.9,��
2017/06/10,16:40,0.985,1.570,1.053,1.873,1.289,0.537,0.974,0.899,�k�k��,6.4,��
2017/06/10,16:50,0.986,1.569,1.052,1.871,1.289,0.535,0.974,0.902,�k�k��,8.0,��
2017/06/10,17:00,0.989,1.571,1.051,1.873,1.289,0.533,0.976,0.900,���k��,7.4,��
2017/06/10,17:10,0.985,1.572,1.053,1.875,1.289,0.536,0.977,0.902,�k��,5.6,��
2017/06/10,17:20,0.986,1.570,1.051,1.873,1.286,0.535,0.974,0.902,�k��,3.7,��
2017/06/10,17:30,0.987,1.571,1.050,1.875,1.288,0.532,0.975,0.902,���k��,4.0,��
2017/06/10,17:40,0.987,1.572,1.053,1.876,1.287,0.534,0.976,0.902,���k��,4.8,��
2017/06/10,17:50,0.988,1.574,1.052,1.877,1.293,0.533,0.975,0.902,���k��,8.9,��
2017/06/10,18:00,0.988,1.574,1.053,1.878,1.291,0.534,0.975,0.903,���k��,8.5,�L
2017/06/10,18:10,0.986,1.572,1.053,1.877,1.290,0.533,0.976,0.901,�k��,5.5,�L
2017/06/10,18:20,0.987,1.574,1.056,1.879,1.293,0.534,0.973,0.902,�k��,4.5,�L
2017/06/10,18:30,0.991,1.575,1.054,1.875,1.295,0.534,0.973,0.903,�k��,3.6,�L
2017/06/10,18:40,0.991,1.573,1.056,1.878,1.291,0.533,0.975,0.903,�k��,5.6,�L
2017/06/10,18:50,0.990,1.575,1.054,1.879,1.293,0.533,0.976,0.902,���k��,10.0,�L
2017/06/10,19:00,0.988,1.576,1.055,1.880,1.295,0.535,0.976,0.902,���k��,11.6,��
2017/06/10,19:10,0.990,1.577,1.056,1.880,1.292,0.534,0.977,0.902,���k��,13.3,��
2017/06/10,19:20,0.991,1.578,1.055,1.883,1.296,0.532,0.974,0.901,���k��,12.1,��
2017/06/10,19:30,0.990,1.577,1.054,1.881,1.294,0.531,0.975,0.902,���k��,13.2,��
2017/06/10,19:40,0.988,1.578,1.052,1.881,1.295,0.533,0.975,0.900,���k��,13.0,��
2017/06/10,19:50,0.989,1.578,1.055,1.884,1.295,0.535,0.976,0.902,���k��,11.9,��
2017/06/10,20:00,0.988,1.578,1.053,1.883,1.294,0.533,0.976,0.901,���k��,12.4,��
2017/06/10,20:10,0.989,1.579,1.054,1.885,1.295,0.532,0.976,0.901,���k��,10.2,��
2017/06/10,20:20,0.990,1.580,1.056,1.884,1.296,0.533,0.976,0.902,���k��,7.6,��
2017/06/10,20:30,0.989,1.578,1.058,1.884,1.295,0.534,0.976,0.900,���k��,5.3,��
2017/06/10,20:40,0.989,1.578,1.056,1.885,1.297,0.533,0.974,0.902,���k��,3.7,��
2017/06/10,20:50,0.990,1.579,1.057,1.886,1.297,0.534,0.974,0.902,���k��,6.0,��
2017/06/10,21:00,0.990,1.578,1.056,1.886,1.296,0.535,0.975,0.905,���쐼,5.2,��
2017/06/10,21:10,0.991,1.576,1.056,1.887,1.297,0.535,0.979,0.903,���k��,2.6,��
2017/06/10,21:20,0.992,1.576,1.056,1.887,1.295,0.536,0.978,0.903,�k�k��,3.0,��
2017/06/10,21:30,0.989,1.577,1.055,1.886,1.297,0.536,0.976,0.902,�k,2.0,��
2017/06/10,21:40,0.991,1.581,1.055,1.885,1.299,0.535,0.980,0.903,�k��,3.2,��
2017/06/10,21:50,0.991,1.576,1.055,1.885,1.297,0.535,0.978,0.904,��,2.8,��
2017/06/10,22:00,0.990,1.579,1.057,1.883,1.295,0.534,0.979,0.903,���k��,6.3,��
2017/06/10,22:10,0.990,1.577,1.057,1.883,1.297,0.535,0.978,0.902,���k��,6.3,��
2017/06/10,22:20,0.991,1.577,1.056,1.889,1.298,0.536,0.980,0.902,��,6.1,��
2017/06/10,22:30,0.991,1.581,1.056,1.886,1.295,0.535,0.980,0.903,���k��,5.0,��
2017/06/10,22:40,0.991,1.577,1.056,1.886,1.297,0.535,0.979,0.903,�k�k��,3.2,��
2017/06/10,22:50,0.990,1.578,1.056,1.886,1.299,0.534,0.979,0.905,�k��,5.0,��
2017/06/10,23:00,0.991,1.580,1.057,1.883,1.297,0.535,0.982,0.902,�k�k��,6.4,��
2017/06/10,23:10,0.990,1.579,1.055,1.885,1.296,0.535,0.980,0.903,�k��,8.0,��
2017/06/10,23:20,0.993,1.580,1.060,1.889,1.297,0.535,0.981,0.904,���k��,8.8,��
2017/06/10,23:30,0.991,1.581,1.060,1.886,1.299,0.534,0.979,0.903,���k��,12.2,��
2017/06/10,23:40,0.991,1.579,1.058,1.889,1.300,0.535,0.978,0.903,���k��,9.5,��
2017/06/10,23:50,0.992,1.582,1.057,1.889,1.301,0.536,0.978,0.903,���k��,9.2,��
